Princeton, British Columbia

11:03 PM PDT on April 24, 2018 (GMT -0700)
Princeton

Weather History for CWPR - October, 2012

Change the Weather History Date:

Wednesday, October 17, 2012

  Actual Average (CYDC) Record (CYDC)
Temperature  
Mean Temperature 42 °F -  
Max Temperature 54 °F 52 °F 70 °F (2017)
Min Temperature 30 °F 31 °F 21 °F (2010)
Degree Days  
Heating Degree Days 23    
Moisture  
Dew Point 31 °F    
Average Humidity 66    
Maximum Humidity 94    
Minimum Humidity 36    
Precipitation  
Precipitation 0.00 in - - ()
Sea Level Pressure  
Sea Level Pressure 30.24 in    
Wind  
Wind Speed 1 mph ()    
Max Wind Speed 4 mph    
Max Gust Speed -    
Averages and records for this station are not official NWS values.
T = Trace of Precipitation, MM = Missing Value Source: Averaged Metar Reports

Daily Weather History Graph

Daily Weather History Graph

Search for Another Location

Airport or City:

Astronomy

Oct. 17, 2012 Rise Set
Actual Time 7:27 AM PDT 6:06 PM PDT
Civil Twilight 6:54 AM PDT 6:38 PM PDT
Nautical Twilight 6:17 AM PDT 7:15 PM PDT
Astronomical Twilight 5:40 AM PDT 7:52 PM PDT
Moon 10:25 AM PDT (10/17) 7:28 PM PDT (10/17)
Length of Visible Light 11h 43m
Length of Day
10h 39m
Waxing Crescent, 8% of the Moon is Illuminated
Oct 17
Waxing Crescent
Oct 21
First Quarter
Oct 29
Full
Nov 6
Last Quarter
Nov 13
New

Hourly Weather History & Observations

Time (PDT) Temp. Windchill Dew Point Humidity Pressure Visibility Wind Dir Wind Speed Gust Speed Precip Events Conditions
12:00 AM 41.2 °F - 33.3 °F 73% 30.14 in - West 2.3 mph - N/A   Unknown
2:00 AM 40.8 °F - 30.7 °F 67% 30.17 in - Calm Calm - N/A   Unknown
3:00 AM 37.6 °F 35.1 °F 31.1 °F 77% 30.19 in - WNW 3.5 mph - N/A   Unknown
4:00 AM 37.4 °F - 30.6 °F 76% 30.20 in - NW 1.2 mph - N/A   Unknown
5:00 AM 36 °F - 30 °F 71% 30.21 in - NNW 1.2 mph - -  
5:00 AM 35.6 °F - 30.0 °F 80% 30.21 in - NNW 1.2 mph - N/A   Unknown
6:00 AM 33.3 °F - 28.6 °F 83% 30.23 in - WNW 1.2 mph - N/A   Unknown
7:00 AM 31.3 °F - 28.2 °F 88% 30.26 in - North 1.2 mph - N/A   Unknown
8:00 AM 30.7 °F - 28.0 °F 90% 30.27 in - Calm Calm - N/A   Unknown
9:00 AM 31.3 °F - 29.7 °F 94% 30.30 in - Calm Calm - N/A   Unknown
10:00 AM 36.9 °F - 31.1 °F 80% 30.31 in - Calm Calm - N/A   Unknown
11:00 AM 41 °F - 32 °F 61% 30.29 in - Calm Calm - -  
11:00 AM 41.0 °F - 31.8 °F 70% 30.29 in - Calm Calm - N/A   Unknown
12:00 PM 44.2 °F - 31.5 °F 61% 30.27 in - SE 1.2 mph - N/A   Unknown
1:00 PM 48.9 °F - 28.9 °F 46% 30.25 in - ESE 3.5 mph - N/A   Unknown
2:00 PM 52.9 °F - 28.9 °F 40% 30.25 in - SE 3.5 mph - N/A   Unknown
3:00 PM 53.4 °F - 29.1 °F 39% 30.23 in - ESE 1.2 mph - N/A   Unknown
4:00 PM 52.3 °F - 29.3 °F 41% 30.24 in - North 3.5 mph - N/A   Unknown
5:00 PM 49 °F - 31 °F 36% 30.24 in - Calm Calm - -  
5:00 PM 49.5 °F - 30.6 °F 48% 30.24 in - Calm Calm - N/A   Unknown
6:00 PM 46.0 °F - 31.6 °F 57% 30.25 in - West 1.2 mph - N/A   Unknown
7:00 PM 45.3 °F - 33.3 °F 63% 30.25 in - Calm Calm - N/A   Unknown
8:00 PM 44.4 °F - 34.2 °F 67% 30.25 in - Calm Calm - N/A   Unknown
9:00 PM 43.3 °F - 33.4 °F 68% 30.24 in - North 2.3 mph - N/A   Unknown
10:00 PM 43.0 °F - 34.7 °F 73% 30.23 in - Calm Calm - N/A   Unknown
11:00 PM 43 °F - 35 °F 63% 30.22 in - Calm Calm - -  
11:00 PM 42.6 °F - 34.7 °F 74% 30.22 in - Calm Calm - N/A   Unknown